Weather History for Hulett, WY

Change the Weather History Date:

Monday, January 13, 2014

  Actual Average (KEFC) Record (KEFC)
Temperature  
Mean Temperature 34 °F -  
Max Temperature 44 °F 34 °F 62 °F (1983)
Min Temperature 24 °F 8 °F -28 °F (1979)
Degree Days  
Heating Degree Days 31    
Moisture  
Dew Point 26 °F    
Average Humidity 68    
Maximum Humidity 93    
Minimum Humidity 43    
Precipitation  
Precipitation 0.00 in - - ()
Sea Level Pressure  
Sea Level Pressure 29.75 in    
Wind  
Wind Speed 13 mph (West)    
Max Wind Speed 38 mph    
Max Gust Speed 48 mph    
Visibility 9 miles    
Events Rain , Snow    
Averages and records for this station are not official NWS values.
T = Trace of Precipitation, MM = Missing Value Source: NWS Daily Summary

Daily Weather History Graph

Daily Weather History Graph

Search for Another Location

Airport:

Trip Planner

Search our weather history database for the weather conditions in past years. The results will help you decide how hot, cold, wet, or windy it might be!

Date:

Astronomy

Jan. 13, 2014 Rise Set
Actual Time 7:32 AM MST 4:41 PM MST
Civil Twilight 7:00 AM MST 5:14 PM MST
Nautical Twilight 6:23 AM MST 5:50 PM MST
Astronomical Twilight 5:48 AM MST 6:25 PM MST
Moon 2:59 PM MST (1/13) 5:22 AM MST (1/13)
Length of Visible Light 10h 14m
Length of Day
9h 08m
Waxing Gibbous, 95% of the Moon is Illuminated
Jan 13
Waxing Gibbous
Jan 15
Full
Jan 23
Last Quarter
Jan 30
New
Feb 6
First Quarter

Hourly Weather History & Observations

Time (MST) Temp. Windchill Dew Point Humidity Pressure Visibility Wind Dir Wind Speed Gust Speed Precip Events Conditions
12:15 AM 26.6 °F 17.5 °F 21.2 °F 80% 29.77 in 10.0 mi SSW 9.2 mph - N/A   Clear
12:35 AM 24.8 °F 14.6 °F 19.4 °F 80% 29.76 in 10.0 mi SSW 10.4 mph - N/A   Clear
12:55 AM 26.6 °F - 21.2 °F 80% 29.75 in 10.0 mi North - - N/A   Clear
1:15 AM 28.4 °F - 23.0 °F 80% 29.76 in 10.0 mi North - - N/A   Scattered Clouds
1:35 AM 30.2 °F - 23.0 °F 75% 29.75 in 10.0 mi North - - N/A   Overcast
1:55 AM 30.2 °F 21.3 °F 23.0 °F 75% 29.75 in 10.0 mi SW 10.4 mph 18.4 mph N/A   Overcast
2:15 AM 30.2 °F 19.8 °F 21.2 °F 69% 29.75 in 10.0 mi SW 13.8 mph 17.3 mph N/A   Overcast
2:35 AM 30.2 °F 19.3 °F 21.2 °F 69% 29.75 in 10.0 mi SW 15.0 mph - N/A   Overcast
2:55 AM - - - N/A% 29.74 in 10.0 mi SSW 12.7 mph 18.4 mph N/A   Overcast
3:15 AM - - - N/A% 29.73 in 10.0 mi SW 8.1 mph - N/A   Overcast
3:35 AM - - - N/A% 29.73 in 10.0 mi SW 10.4 mph 16.1 mph N/A   Overcast
3:55 AM - - - N/A% 29.71 in 10.0 mi SW 9.2 mph - N/A   Overcast
4:15 AM - - - N/A% 29.71 in 10.0 mi SW 11.5 mph - N/A   Overcast
4:35 AM 32.0 °F 22.1 °F 17.6 °F 55% 29.70 in 10.0 mi SW 13.8 mph - N/A   Overcast
4:55 AM - - - N/A% 29.71 in 10.0 mi WSW 15.0 mph 21.9 mph N/A   Overcast
5:15 AM - - - N/A% 29.71 in 10.0 mi WSW 12.7 mph 20.7 mph N/A   Overcast
5:35 AM - - - N/A% 29.70 in 10.0 mi West 11.5 mph 18.4 mph N/A   Overcast
5:55 AM - - - N/A% 29.69 in 10.0 mi West 11.5 mph 19.6 mph N/A   Overcast
6:15 AM 37.4 °F 30.3 °F 21.2 °F 52% 29.68 in 10.0 mi West 10.4 mph 21.9 mph N/A   Overcast
6:35 AM - - - N/A% 29.68 in 10.0 mi West 12.7 mph 19.6 mph N/A   Overcast
6:55 AM - - - N/A% 29.68 in 10.0 mi WSW 11.5 mph 18.4 mph N/A   Overcast
7:15 AM - - - N/A% 29.68 in 10.0 mi West 10.4 mph 16.1 mph N/A   Overcast
7:35 AM - - - N/A% 29.68 in 10.0 mi West 12.7 mph 16.1 mph N/A   Overcast
7:55 AM - - - N/A% 29.69 in 10.0 mi West 12.7 mph 16.1 mph N/A   Overcast
8:15 AM - - - N/A% 29.69 in 10.0 mi WSW 13.8 mph 21.9 mph N/A   Overcast
8:35 AM - - - N/A% 29.70 in 10.0 mi WSW 13.8 mph - N/A   Overcast
8:55 AM - - - N/A% 29.69 in 10.0 mi WSW 16.1 mph 20.7 mph N/A   Overcast
9:15 AM - - - N/A% 29.69 in 10.0 mi WSW 15.0 mph 21.9 mph N/A   Overcast
9:35 AM - - - N/A% 29.69 in 10.0 mi WSW 16.1 mph 24.2 mph N/A   Overcast
9:55 AM - - - N/A% 29.70 in 10.0 mi West 11.5 mph 17.3 mph N/A   Overcast
10:15 AM - - - N/A% 29.69 in 10.0 mi West 11.5 mph 27.6 mph N/A   Overcast
10:35 AM - - - N/A% 29.69 in 10.0 mi West 15.0 mph 25.3 mph N/A   Overcast
10:55 AM 41.0 °F 33.5 °F 26.6 °F 57% 29.68 in 10.0 mi West 13.8 mph 24.2 mph N/A   Overcast
11:15 AM 41.0 °F 33.1 °F 26.6 °F 57% 29.67 in 10.0 mi WSW 15.0 mph 18.4 mph N/A   Overcast
11:35 AM 41.0 °F 34.7 °F 26.6 °F 57% 29.68 in 10.0 mi West 10.4 mph 23.0 mph N/A   Overcast
11:55 AM 41.0 °F 34.7 °F 26.6 °F 57% 29.67 in 10.0 mi West 10.4 mph - N/A   Overcast
12:15 PM 42.8 °F 35.4 °F 26.6 °F 53% 29.67 in 10.0 mi West 15.0 mph 31.1 mph N/A   Overcast
12:35 PM 42.8 °F 35.4 °F 26.6 °F 53% 29.66 in 10.0 mi WSW 15.0 mph 20.7 mph N/A   Overcast
12:55 PM 42.8 °F 35.8 °F 26.6 °F 53% 29.66 in 10.0 mi WSW 13.8 mph 19.6 mph N/A   Overcast
1:15 PM 42.8 °F 35.1 °F 26.6 °F 53% 29.65 in 10.0 mi West 16.1 mph 21.9 mph N/A   Overcast
1:35 PM 44.6 °F 37.8 °F 26.6 °F 49% 29.65 in 10.0 mi West 15.0 mph 23.0 mph N/A   Overcast
1:55 PM 44.6 °F 40.7 °F 24.8 °F 46% 29.65 in 10.0 mi West 6.9 mph - N/A   Overcast
2:15 PM 44.6 °F 39.2 °F 26.6 °F 49% 29.65 in 10.0 mi West 10.4 mph 18.4 mph N/A   Overcast
2:35 PM 42.8 °F 37.0 °F 24.8 °F 49% 29.66 in 10.0 mi West 10.4 mph 20.7 mph N/A   Overcast
2:55 PM 42.8 °F 36.2 °F 24.8 °F 49% 29.66 in 10.0 mi West 12.7 mph 20.7 mph N/A   Overcast
3:15 PM 44.6 °F 38.1 °F 24.8 °F 46% 29.66 in 10.0 mi West 13.8 mph 20.7 mph N/A   Overcast
3:35 PM 44.6 °F 38.8 °F 24.8 °F 46% 29.67 in 10.0 mi West 11.5 mph 19.6 mph N/A   Overcast
3:55 PM 44.6 °F 39.7 °F 24.8 °F 46% 29.67 in 10.0 mi WNW 9.2 mph 17.3 mph N/A   Overcast
4:15 PM 44.6 °F 38.1 °F 24.8 °F 46% 29.68 in 10.0 mi NW 13.8 mph 26.5 mph N/A   Overcast
4:35 PM 44.6 °F 36.9 °F 23.0 °F 43% 29.69 in 10.0 mi NW 18.4 mph 27.6 mph N/A   Overcast
4:55 PM 44.6 °F 36.9 °F 24.8 °F 46% 29.70 in 10.0 mi WNW 18.4 mph 31.1 mph N/A   Scattered Clouds
5:15 PM 42.8 °F 31.1 °F 28.4 °F 57% 29.72 in 10.0 mi NNW 38.0 mph 48.3 mph N/A Rain Rain
5:35 PM 39.2 °F 29.6 °F 32.0 °F 75% 29.74 in 10.0 mi NW 19.6 mph - N/A Rain Light Rain
5:55 PM 37.4 °F 27.2 °F 32.0 °F 81% 29.75 in 4.0 mi North 19.6 mph 36.8 mph N/A Rain Rain
6:15 PM 33.8 °F 22.8 °F 32.0 °F 93% 29.78 in 0.8 mi NNW 18.4 mph 29.9 mph N/A Snow Light Snow
6:35 PM - - - N/A% 29.80 in 3.0 mi NW 16.1 mph 25.3 mph N/A   Unknown
6:55 PM 35.6 °F 27.1 °F 32.0 °F 87% 29.80 in 10.0 mi NW 12.7 mph 28.8 mph N/A   Overcast
7:15 PM 35.6 °F 27.5 °F 32.0 °F 87% 29.82 in 10.0 mi NW 11.5 mph 21.9 mph N/A   Overcast
7:35 PM 35.6 °F 24.2 °F 30.2 °F 81% 29.83 in 10.0 mi NW 21.9 mph 33.4 mph N/A   Overcast
7:55 PM 33.8 °F 21.3 °F 30.2 °F 87% 29.86 in 10.0 mi NNW 24.2 mph 31.1 mph N/A   Overcast
8:15 PM 33.8 °F 20.8 °F 30.2 °F 87% 29.88 in 10.0 mi NNW 26.5 mph 35.7 mph N/A   Overcast
8:35 PM 32.0 °F 19.5 °F 30.2 °F 93% 29.89 in 7.0 mi NNW 21.9 mph 29.9 mph N/A Snow Light Snow
8:55 PM 32.0 °F 19.5 °F 30.2 °F 93% 29.89 in 1.2 mi North 21.9 mph 28.8 mph N/A Snow Light Snow
9:15 PM 32.0 °F 19.2 °F 28.4 °F 87% 29.90 in 2.5 mi NNW 23.0 mph 34.5 mph N/A Snow Light Snow
9:35 PM 32.0 °F 18.6 °F 28.4 °F 87% 29.93 in 3.0 mi NNW 25.3 mph 34.5 mph N/A Snow Light Snow
9:55 PM 32.0 °F 22.1 °F 30.2 °F 93% 29.97 in 1.0 mi NW 13.8 mph 21.9 mph N/A Snow Light Snow
10:15 PM 32.0 °F 20.5 °F 28.4 °F 87% 29.97 in 1.0 mi NNW 18.4 mph 36.8 mph N/A Snow Light Snow
10:35 PM 32.0 °F 20.8 °F 26.6 °F 80% 29.97 in 10.0 mi NNW 17.3 mph 26.5 mph N/A   Overcast
10:55 PM 32.0 °F 21.2 °F 26.6 °F 80% 30.00 in 10.0 mi NW 16.1 mph 26.5 mph N/A   Overcast
11:15 PM 32.0 °F 20.8 °F 26.6 °F 80% 30.04 in 10.0 mi NNW 17.3 mph 27.6 mph N/A   Overcast
11:35 PM 30.2 °F 18.5 °F 26.6 °F 86% 30.05 in 5.0 mi NW 17.3 mph 26.5 mph N/A Snow Light Snow
11:55 PM 30.2 °F 17.8 °F 24.8 °F 80% 30.04 in 7.0 mi NNW 19.6 mph 23.0 mph N/A   Overcast